Overview Statistics Trail Chart Weather Telemetry Raw packets
 

This is the latest recevied weather packets stored in our database for station/object KC5DAQ-26. If no packets are shown the sender has not sent any weather packets the latest 10 day(s).

<< 546 547 548 549 550 551 552 >>
Time Temp. Humidity Pressure Rain* Wind** Luminosity Snow
1787766529 34.44° C 65% 1019.2 hPa 0 mm - 870 W/m² -
1787766470 34.44° C 65% 1019.4 hPa 0 mm - 907 W/m² -
1787766409 34.44° C 65% 1019.4 hPa 0 mm - 909 W/m² -
1787766349 34.44° C 65% 1019.4 hPa 0 mm - 746 W/m² -
1787766289 34.44° C 66% 1019.4 hPa 0 mm - 426 W/m² -
1787766230 33.89° C 66% 1019.4 hPa 0 mm - 153 W/m² -
1787766171 33.89° C 66% 1019.4 hPa 0 mm - 118 W/m² -
1787766110 33.89° C 66% 1019.6 hPa 0 mm - 118 W/m² -
1787766051 33.89° C 66% 1019.5 hPa 0 mm - 211 W/m² -
1787765991 33.89° C 65% 1019.5 hPa 0 mm - 603 W/m² -
1787765930 33.89° C 65% 1019.5 hPa 0 mm - 895 W/m² -
1787765853 33.89° C 65% 1019.5 hPa 0 mm - 893 W/m² -
1787765792 33.89° C 66% 1019.5 hPa 0 mm - 893 W/m² -
1787765731 33.89° C 66% 1019.5 hPa 0 mm - 893 W/m² -
1787765672 33.89° C 65% 1019.5 hPa 0 mm - 893 W/m² -
1787765613 33.89° C 65% 1019.6 hPa 0 mm - 893 W/m² -
1787765551 33.89° C 65% 1019.6 hPa 0 mm - 893 W/m² -
1787765492 33.89° C 66% 1019.6 hPa 0 mm - 892 W/m² -
1787765432 33.89° C 64% 1019.6 hPa 0 mm - 888 W/m² -
1787765373 33.89° C 65% 1019.6 hPa 0 mm - 884 W/m² -
1787765313 33.89° C 65% 1019.6 hPa 0 mm - 886 W/m² -
1787765252 33.89° C 66% 1019.7 hPa 0 mm - 890 W/m² -
1787765192 33.89° C 66% 1019.7 hPa 0 mm - 886 W/m² -
1787765133 33.89° C 65% 1019.7 hPa 0 mm - 886 W/m² -
1787765073 33.89° C 64% 1019.8 hPa 0 mm - 886 W/m² -

* Rain latest hour (hover to see other rain measurements)
** Current wind speed in m/s (hover to see current wind gust speed)